Home   Weather   Green Bay   Past weeks
Flag for USA

Past Weather in Green Bay, Wisconsin, USA — Yesterday and Last 2 Weeks

Now
46 °F

Passing clouds.


Feels Like: 41 °F
Forecast: 51 / 40 °F
Wind: 9 mph from Northwest

Location: Austin Straubel International Airport

Current Time: Oct 16, 2019 at 8:33:42 pm

Latest Report: Oct 16, 2019 at 7:53 pm


Visibility: 10 mi

Pressure: 30.00 "Hg

Humidity: 66%

Dew Point: 35 °F

Location of Green BayLocation

Past Weather in Green Bay — Graph

°F

Green Bay Temperature Yesterday

Maximum temperature yesterday: 54 °F (at 12:53 pm)
Minimum temperature yesterday: 36 °F (at 4:53 am)
Average temperature yesterday: 47 °F

High & Low Weather Summary for the Past Weeks

 TemperatureHumidityPressure
High70 °F (Oct 9, 1:53 pm)94% (Oct 11, 9:53 am)30.50 "Hg (Oct 11, 9:53 am)
Low33 °F (Oct 14, 6:53 am)36% (Oct 6, 3:53 pm)29.65 "Hg (Oct 15, 3:09 pm)
Average50 °F76%29.99 "Hg
* Reported Oct 1 6:19 pm — Oct 16 6:53 pm, Green Bay. Weather by CustomWeather, © 2019

Note: Actual official high and low records may vary slightly from our data, if they occured in-between our weather recording intervals... More about our weather records

Advertising

Green Bay Weather History for the Previous 24 Hours

Scroll right to see more
 ConditionsComfort  
Time TempWeatherWind HumidityBarometerVisibility
6:53 pm
Wed, Oct 16
47 °FPassing clouds.5 mph64%29.97 "Hg10 mi
5:53 pm49 °FPassing clouds.9 mph59%29.96 "Hg10 mi
4:53 pm51 °FScattered clouds.14 mph54%29.94 "Hg10 mi
3:53 pm52 °FPartly sunny.20 mph55%29.93 "Hg10 mi
2:53 pm51 °FMore clouds than sun.17 mph59%29.92 "Hg10 mi
1:53 pm52 °FScattered clouds.17 mph59%29.92 "Hg10 mi
12:53 pm50 °FCloudy.16 mph66%29.92 "Hg10 mi
11:53 am47 °FLight rain. More clouds than sun.17 mph71%29.92 "Hg10 mi
10:53 am49 °FMostly cloudy.17 mph64%29.88 "Hg10 mi
9:53 am47 °FMore clouds than sun.17 mph71%29.87 "Hg10 mi
8:53 am47 °FPassing clouds.18 mph71%29.85 "Hg10 mi
7:53 am44 °FPartly sunny.21 mph79%29.84 "Hg10 mi
6:53 am44 °FClear.16 mph79%29.81 "Hg10 mi
5:53 am45 °FOvercast.17 mph76%29.79 "Hg10 mi
5:31 am44 °FMostly cloudy.17 mph79%29.78 "Hg10 mi
5:23 am44 °FMostly cloudy.18 mph79%29.78 "Hg10 mi
4:53 am45 °FOvercast.20 mph80%29.78 "Hg10 mi
3:53 am44 °FLight rain. Overcast.16 mph82%29.76 "Hg10 mi
2:53 am44 °FOvercast.17 mph82%29.75 "Hg10 mi
2:26 am43 °FOvercast.N/A86%29.73 "Hg10 mi
1:53 am42 °FLight rain. Overcast.13 mph85%29.73 "Hg10 mi
12:53 am42 °FRain. Mostly cloudy.17 mph89%29.71 "HgN/A
11:53 pm
Tue, Oct 15
44 °FLight rain. Mostly cloudy.12 mph89%29.69 "HgN/A
10:53 pm44 °FFog.14 mph89%29.67 "Hg4 mi
10:04 pm46 °FMostly cloudy.15 mph83%29.67 "Hg10 mi
9:29 pm47 °FOvercast.17 mph83%29.67 "Hg10 mi
8:53 pm47 °FOvercast.15 mph86%29.67 "Hg10 mi
Weather by CustomWeather, © 2019

See weather overview